Regional Weather Roundup
Issued by NWS

Home | Current Version | Previous Version | Text Only | Print | Product List | Glossary Off
Versions: 1 2 3 4 5 6 7 8 9 10 11 12 13 14 15 16 17 18 19 20 21 22 23 24 25 26 27 28 29 30 31 32 33 34 35 36 37 38 39 40 41 42 43 44 45 46 47 48 49 50

000
ASUS43 KFSD 192110
RWRSD

WEATHER ROUNDUP FOR SOUTH DAKOTA
NATIONAL WEATHER SERVICE SIOUX FALLS SD
400 PM CDT SUN APR 19 2015

NOTE: "FAIR" INDICATES FEW OR NO CLOUDS BELOW 12,000 FEET WITH NO
SIGNIFICANT WEATHER AND/OR OBSTRUCTIONS TO VISIBILITY.


SDZ001>005-009-010-012>017-192200-
NORTHWEST AND NORTH CENTRAL SOUTH DAKOTA

CITY           SKY/WX    TMP DP  RH WIND       PRES   REMARKS
BUFFALO          N/A     51  23  33 NW29G47   29.93F
FAITH            N/A     46  26  45 NW30G39   29.96S
MOBRIDGE       CLOUDY    51  33  50 NW25G31   29.86R
$$

SDZ012>016-024>037-041>051-057-063-072>074-192200-
SOUTHWEST AND SOUTH CENTRAL SOUTH DAKOTA

CITY           SKY/WX    TMP DP  RH WIND       PRES   REMARKS
RAPID CTY ARPT MOSUNNY   53  23  31 N30G41    29.99S
PIERRE         CLOUDY    50  30  46 NW28G37   29.91R
CUSTER         PTSUNNY   40  14  34 N15G29    29.99F
ELLSWORTH AFB  PTSUNNY   51  22  31 NW31G39   29.98S
PHILIP         CLOUDY    52  25  35 NW21G35   29.96F
PINE RIDGE     CLOUDY    52  23  32 N16G25    30.00F
SPEARFISH      FAIR      46  19  34 NW26G37   30.03S
WINNER         CLOUDY    51  28  41 NW26G37   29.90F
$$

SDZ004>011-016>023-039-040-192200-
NORTHEAST SOUTH DAKOTA

CITY           SKY/WX    TMP DP  RH WIND       PRES   REMARKS
ABERDEEN       PTSUNNY   55  32  41 NW22G30   29.79F
WATERTOWN      CLOUDY    53  30  41 NW30G36   29.74F
BROOKINGS      CLOUDY    54  30  40 NW28G36   29.73F
SISSETON         N/A     54  37  52 N29G39    29.72S
$$

SDZ017-020-022-023-036>040-048>070-192200-
SOUTHEAST SOUTH DAKOTA

CITY           SKY/WX    TMP DP  RH WIND       PRES   REMARKS
SIOUX FALLS    PTSUNNY   58  32  37 NW28G36   29.73F
HURON          CLOUDY    52  30  43 NW24G32   29.80F
CHAMBERLAIN    CLOUDY    51  30  44 NW25G33   29.88S
MITCHELL       CLOUDY    56  31  38 NW26G37   29.81F
YANKTON        PTSUNNY   55  30  38 NW30G37   29.78S
$$

ABBREVIATIONS USED IN REMARKS
   TC - TEMPERATURE IN CELSIUS
  WCI - WIND CHILL INDEX
   HX - HEAT INDEX
  VSB - VISIBILITY




USA.gov is the U.S. government's official web portal to all federal, state and local government web resources and services.